{"data":{"norad_id":44186,"epoch":"2026-05-25T00:28:00.956064Z","epoch_age_seconds":67135,"freshness":"FRESH","line1":"1 44186U 19021A   26145.01945551  .00000151  00000+0  00000+0 0  9999","line2":"2 44186   0.0580  22.1279 0001658 334.2876 283.6656  1.00269632 25927","mean_motion":1.00269632,"eccentricity":0.0001658,"inclination_deg":0.058,"raan_deg":22.1279,"arg_perigee_deg":334.2876,"mean_anomaly_deg":283.6656,"bstar":0,"rev_number":2592,"period_min":1436.1277400519,"perigee_km":35780.207523415,"apogee_km":35794.189548679,"semimajor_km":42165.335536047,"source":"CELESTRAK","updated_at":"2026-05-25T13:38:14.063207Z"}}